| time (UTC) | temp F | wind direction | speed MPH | gust MPH | rain 1hr in | rain 24hr in | rain mn in | humidity % | barometer mb |
| 20260506001412 | 43 | 0 | 1.0 | 6.0 | 0.01 | 0.02 | 0.02 | 87 | 1015.8 |
| 20260506000912 | 43 | 0 | 0.0 | 3.0 | 0.00 | 0.01 | 0.01 | 87 | 1015.9 |
| 20260506000411 | 43 | 0 | 1.0 | 3.0 | 0.00 | 0.01 | 0.01 | 87 | 1015.8 |
| 20260505235845 | 43 | 0 | 1.0 | 3.0 | 0.00 | 0.01 | 0.01 | 86 | 1015.7 |
| 20260505235317 | 44 | 0 | 0.0 | 4.0 | 0.00 | 0.01 | 0.01 | 86 | 1015.8 |
| 20260505235023 | 44 | 0 | 1.0 | 4.0 | 0.00 | 0.01 | 0.01 | 85 | 1015.8 |
| 20260505234907 | 44 | 0 | 1.0 | 4.0 | 0.00 | 0.01 | 0.01 | 85 | 1015.8 |
| 20260505234241 | 44 | 0 | 1.0 | 5.0 | 0.00 | 0.01 | 0.01 | 85 | 1015.7 |
| 20260505233738 | 44 | 0 | 1.0 | 5.0 | 0.00 | 0.01 | 0.01 | 85 | 1015.8 |
| 20260505233231 | 44 | 0 | 1.0 | 4.0 | 0.00 | 0.01 | 0.01 | 85 | 1015.7 |
| 20260505232725 | 44 | 0 | 1.0 | 4.0 | 0.00 | 0.01 | 0.01 | 84 | 1015.7 |
| 20260505232229 | 44 | 0 | 1.0 | 4.0 | 0.00 | 0.01 | 0.01 | 85 | 1015.7 |
| 20260505231954 | 44 | 0 | 1.0 | 4.0 | 0.00 | 0.01 | 0.01 | 85 | 1015.8 |
| 20260505231154 | 44 | 0 | 1.0 | 5.0 | 0.00 | 0.01 | 0.01 | 84 | 1015.6 |
| 20260505230640 | 44 | 0 | 1.0 | 5.0 | 0.00 | 0.01 | 0.01 | 84 | 1015.6 |
| 20260505230149 | 44 | 0 | 0.0 | 3.0 | 0.00 | 0.01 | 0.01 | 84 | 1015.6 |
| 20260505225634 | 44 | 0 | 0.0 | 4.0 | 0.00 | 0.01 | 0.01 | 84 | 1015.7 |
| 20260505225506 | 44 | 0 | 1.0 | 4.0 | 0.00 | 0.01 | 0.01 | 84 | 1015.6 |
| 20260505225428 | 44 | 0 | 1.0 | 4.0 | 0.00 | 0.01 | 0.01 | 84 | 1015.6 |
| 20260505224630 | 44 | 0 | 1.0 | 4.0 | 0.00 | 0.01 | 0.01 | 84 | 1015.6 |
| 20260505224122 | 44 | 0 | 0.0 | 5.0 | 0.01 | 0.01 | 0.01 | 85 | 1015.7 |
| 20260505223619 | 44 | 0 | 0.0 | 5.0 | 0.01 | 0.01 | 0.01 | 86 | 1015.5 |
| 20260505223118 | 44 | 0 | 1.0 | 5.0 | 0.01 | 0.01 | 0.01 | 85 | 1015.6 |
| 20260505222552 | 44 | 0 | 1.0 | 5.0 | 0.01 | 0.01 | 0.01 | 85 | 1015.6 |
| 20260505222028 | 44 | 0 | 1.0 | 4.0 | 0.01 | 0.01 | 0.01 | 85 | 1015.7 |
| 20260505221725 | 44 | 0 | 2.0 | 6.0 | 0.01 | 0.01 | 0.01 | 85 | 1015.7 |
| 20260505221609 | 44 | 0 | 2.0 | 6.0 | 0.01 | 0.01 | 0.01 | 85 | 1015.7 |
| 20260505220936 | 44 | 0 | 2.0 | 6.0 | 0.01 | 0.01 | 0.01 | 85 | 1015.8 |
| 20260505220432 | 44 | 0 | 2.0 | 5.0 | 0.01 | 0.01 | 0.01 | 85 | 1015.9 |
| 20260505215906 | 44 | 0 | 1.0 | 5.0 | 0.01 | 0.01 | 0.01 | 86 | 1016.0 |
| 20260505215338 | 44 | 0 | 2.0 | 4.0 | 0.01 | 0.01 | 0.01 | 85 | 1016.0 |
| 20260505214808 | 44 | 0 | 2.0 | 4.0 | 0.01 | 0.01 | 0.01 | 85 | 1015.9 |
| 20260505214246 | 44 | 0 | 1.0 | 4.0 | 0.00 | 0.00 | 0.01 | 86 | 1016.0 |
| 20260505214238 | 44 | 0 | 1.0 | 4.0 | 0.00 | 0.00 | 0.00 | 86 | 1016.0 |
| 20260505213849 | 44 | 0 | 1.0 | 4.0 | 0.00 | 0.00 | 0.00 | 86 | 1016.0 |
| 20260505213242 | 44 | 0 | 2.0 | 6.0 | 0.00 | 0.00 | 0.00 | 85 | 1016.0 |
| 20260505212716 | 44 | 0 | 3.0 | 6.0 | 0.00 | 0.00 | 0.00 | 85 | 1016.0 |
| 20260505212152 | 44 | 0 | 2.0 | 5.0 | 0.00 | 0.00 | 0.00 | 84 | 1016.0 |
| 20260505211647 | 44 | 0 | 2.0 | 6.0 | 0.00 | 0.00 | 0.00 | 84 | 1016.0 |
| 20260505211122 | 44 | 0 | 3.0 | 6.0 | 0.00 | 0.00 | 0.00 | 83 | 1016.3 |
| 20260505210557 | 44 | 0 | 4.0 | 8.0 | 0.00 | 0.00 | 0.00 | 84 | 1016.1 |
| 20260505210030 | 44 | 0 | 3.0 | 6.0 | 0.00 | 0.00 | 0.00 | 83 | 1016.4 |
| 20260505205502 | 44 | 0 | 3.0 | 6.0 | 0.00 | 0.00 | 0.00 | 84 | 1016.6 |
| 20260505204958 | 44 | 0 | 3.0 | 8.0 | 0.00 | 0.00 | 0.00 | 83 | 1016.5 |
| 20260505204431 | 44 | 0 | 2.0 | 8.0 | 0.00 | 0.00 | 0.00 | 83 | 1016.5 |
| 20260505203929 | 44 | 0 | 3.0 | 6.0 | 0.00 | 0.00 | 0.00 | 84 | 1016.5 |
| 20260505203402 | 44 | 0 | 3.0 | 6.0 | 0.00 | 0.00 | 0.00 | 83 | 1016.5 |
| 20260505203107 | 44 | 0 | 3.0 | 6.0 | 0.00 | 0.00 | 0.00 | 83 | 1016.5 |
| 20260505202940 | 44 | 0 | 3.0 | 6.0 | 0.00 | 0.00 | 0.00 | 83 | 1016.5 |
| 20260505202332 | 44 | 0 | 3.0 | 8.0 | 0.00 | 0.00 | 0.00 | 82 | 1016.3 |
| 20260505201806 | 44 | 0 | 3.0 | 8.0 | 0.00 | 0.00 | 0.00 | 84 | 1016.1 |
| 20260505201239 | 44 | 0 | 4.0 | 10.0 | 0.00 | 0.00 | 0.00 | 83 | 1016.1 |
| 20260505200735 | 45 | 0 | 3.0 | 10.0 | 0.00 | 0.00 | 0.00 | 84 | 1016.0 |
| 20260505200211 | 45 | 0 | 3.0 | 8.0 | 0.00 | 0.00 | 0.00 | 84 | 1016.0 |
| 20260505195707 | 44 | 0 | 3.0 | 9.0 | 0.00 | 0.00 | 0.00 | 84 | 1016.3 |
| 20260505195139 | 44 | 0 | 4.0 | 9.0 | 0.00 | 0.00 | 0.00 | 83 | 1016.3 |
| 20260505194614 | 44 | 0 | 3.0 | 8.0 | 0.00 | 0.00 | 0.00 | 84 | 1016.4 |
| 20260505194048 | 44 | 0 | 3.0 | 8.0 | 0.00 | 0.00 | 0.00 | 84 | 1016.4 |
| 20260505193544 | 44 | 0 | 3.0 | 6.0 | 0.00 | 0.00 | 0.00 | 84 | 1016.5 |
| 20260505193018 | 44 | 0 | 2.0 | 6.0 | 0.00 | 0.00 | 0.00 | 84 | 1016.6 |
| 20260505192513 | 44 | 0 | 2.0 | 6.0 | 0.00 | 0.00 | 0.00 | 84 | 1016.5 |
| 20260505191948 | 44 | 0 | 2.0 | 6.0 | 0.00 | 0.00 | 0.00 | 83 | 1016.7 |
| 20260505191419 | 44 | 0 | 2.0 | 6.0 | 0.00 | 0.00 | 0.00 | 83 | 1016.6 |
| 20260505190916 | 44 | 0 | 2.0 | 6.0 | 0.00 | 0.00 | 0.00 | 84 | 1016.7 |
| 20260505190350 | 44 | 0 | 3.0 | 5.0 | 0.00 | 0.00 | 0.00 | 83 | 1016.6 |
| 20260505190041 | 44 | 0 | 3.0 | 8.0 | 0.00 | 0.00 | 0.00 | 84 | 1016.6 |
| 20260505185926 | 44 | 0 | 3.0 | 8.0 | 0.00 | 0.00 | 0.00 | 84 | 1016.6 |
| 20260505185257 | 44 | 0 | 4.0 | 8.0 | 0.00 | 0.00 | 0.00 | 83 | 1016.6 |
| 20260505185006 | 44 | 0 | 3.0 | 5.0 | 0.00 | 0.00 | 0.00 | 83 | 1016.8 |
| 20260505184834 | 44 | 0 | 3.0 | 5.0 | 0.00 | 0.00 | 0.00 | 83 | 1016.8 |
| 20260505184225 | 44 | 0 | 3.0 | 5.0 | 0.00 | 0.00 | 0.00 | 83 | 1016.8 |
| 20260505183659 | 44 | 0 | 2.0 | 5.0 | 0.00 | 0.00 | 0.00 | 83 | 1016.8 |
| 20260505183156 | 44 | 0 | 3.0 | 5.0 | 0.00 | 0.00 | 0.00 | 81 | 1017.0 |
| 20260505182631 | 44 | 0 | 3.0 | 6.0 | 0.00 | 0.00 | 0.00 | 81 | 1017.1 |
| 20260505182601 | 45 | 0 | 2.0 | 6.0 | 0.00 | 0.00 | 0.00 | 80 | 1017.1 |
| 20260505182208 | 45 | 0 | 2.0 | 6.0 | 0.00 | 0.00 | 0.00 | 80 | 1017.1 |
| 20260505181600 | 45 | 0 | 1.0 | 6.0 | 0.00 | 0.00 | 0.00 | 82 | 1017.2 |
| 20260505181034 | 45 | 0 | 0.0 | 4.0 | 0.00 | 0.00 | 0.00 | 84 | 1017.4 |
| 20260505180533 | 45 | 0 | 1.0 | 5.0 | 0.00 | 0.00 | 0.00 | 83 | 1017.2 |
| 20260505180006 | 45 | 0 | 2.0 | 5.0 | 0.00 | 0.00 | 0.00 | 82 | 1017.4 |
| 20260505175441 | 45 | 0 | 1.0 | 4.0 | 0.00 | 0.00 | 0.00 | 82 | 1017.4 |
| 20260505174940 | 45 | 0 | 1.0 | 4.0 | 0.00 | 0.00 | 0.00 | 82 | 1017.5 |
| 20260505174412 | 45 | 0 | 2.0 | 5.0 | 0.00 | 0.00 | 0.00 | 83 | 1017.5 |
| 20260505173905 | 44 | 0 | 2.0 | 5.0 | 0.00 | 0.00 | 0.00 | 82 | 1017.4 |
| 20260505173339 | 44 | 0 | 1.0 | 5.0 | 0.00 | 0.00 | 0.00 | 81 | 1017.5 |
| 20260505172816 | 44 | 0 | 1.0 | 5.0 | 0.00 | 0.00 | 0.00 | 83 | 1017.4 |
| 20260505172310 | 44 | 0 | 1.0 | 3.0 | 0.00 | 0.00 | 0.00 | 82 | 1017.5 |
| 20260505172258 | 44 | 0 | 1.0 | 3.0 | 0.00 | 0.00 | 0.00 | 83 | 1017.6 |
| 20260505171907 | 44 | 0 | 1.0 | 3.0 | 0.00 | 0.00 | 0.00 | 83 | 1017.6 |
| 20260505171533 | 44 | 0 | 1.0 | 4.0 | 0.00 | 0.00 | 0.00 | 83 | 1017.7 |
| 20260505171403 | 44 | 0 | 1.0 | 4.0 | 0.00 | 0.00 | 0.00 | 83 | 1017.7 |
| 20260505170756 | 44 | 0 | 2.0 | 4.0 | 0.00 | 0.00 | 0.00 | 83 | 1017.8 |
| 20260505170524 | 44 | 0 | 2.0 | 4.0 | 0.00 | 0.00 | 0.00 | 83 | 1017.8 |
| 20260505170353 | 44 | 0 | 2.0 | 4.0 | 0.00 | 0.00 | 0.00 | 83 | 1017.8 |
| 20260505170008 | 44 | 0 | 2.0 | 4.0 | 0.00 | 0.00 | 0.00 | 83 | 1017.9 |
| 20260505165851 | 44 | 0 | 2.0 | 4.0 | 0.00 | 0.00 | 0.00 | 83 | 1017.9 |
| 20260505165248 | 44 | 0 | 1.0 | 3.0 | 0.00 | 0.00 | 0.00 | 83 | 1017.8 |
| 20260505164728 | 43 | 0 | 1.0 | 4.0 | 0.00 | 0.00 | 0.00 | 83 | 1017.8 |
| 20260505164227 | 43 | 0 | 2.0 | 4.0 | 0.00 | 0.00 | 0.00 | 83 | 1017.9 |
| 20260505163727 | 43 | 0 | 2.0 | 4.0 | 0.00 | 0.00 | 0.00 | 84 | 1017.8 |
| 20260505163236 | 43 | 0 | 2.0 | 4.0 | 0.00 | 0.00 | 0.00 | 84 | 1017.7 |
| 20260505162725 | 43 | 0 | 2.0 | 6.0 | 0.00 | 0.00 | 0.00 | 84 | 1017.6 |
| 20260505162224 | 43 | 0 | 2.0 | 6.0 | 0.00 | 0.00 | 0.00 | 84 | 1017.6 |
| 20260505161918 | 43 | 0 | 3.0 | 6.0 | 0.00 | 0.00 | 0.00 | 84 | 1017.5 |
| 20260505161802 | 43 | 0 | 3.0 | 6.0 | 0.00 | 0.00 | 0.00 | 84 | 1017.5 |
| 20260505161138 | 43 | 0 | 3.0 | 8.0 | 0.00 | 0.00 | 0.00 | 85 | 1017.4 |
| 20260505160614 | 43 | 0 | 4.0 | 9.0 | 0.00 | 0.00 | 0.00 | 85 | 1017.2 |
| 20260505160115 | 43 | 0 | 3.0 | 9.0 | 0.00 | 0.00 | 0.00 | 85 | 1017.1 |
| 20260505152941 | 43 | 0 | 3.0 | 9.0 | 0.00 | 0.00 | 0.00 | 87 | 1017.2 |
| 20260505152423 | 43 | 0 | 3.0 | 9.0 | 0.00 | 0.00 | 0.00 | 87 | 1017.2 |
| 20260505151923 | 42 | 0 | 3.0 | 9.0 | 0.00 | 0.00 | 0.00 | 87 | 1017.1 |
| 20260505151404 | 42 | 0 | 4.0 | 11.0 | 0.00 | 0.00 | 0.00 | 87 | 1017.0 |
| 20260505150902 | 42 | 0 | 5.0 | 11.0 | 0.00 | 0.00 | 0.00 | 87 | 1017.0 |
| 20260505150400 | 42 | 0 | 4.0 | 11.0 | 0.00 | 0.00 | 0.00 | 87 | 1017.0 |
| 20260505140614 | 42 | 0 | 4.0 | 11.0 | 0.00 | 0.00 | 0.00 | 87 | 1016.8 |
| 20260505124747 | 42 | 0 | 6.0 | 13.0 | 0.00 | 0.00 | 0.00 | 85 | 1015.5 |
| 20260505124242 | 42 | 0 | 4.0 | 10.0 | 0.00 | 0.00 | 0.00 | 87 | 1015.4 |
| 20260505124008 | 42 | 0 | 3.0 | 10.0 | 0.00 | 0.00 | 0.00 | 89 | 1015.4 |
| 20260505123845 | 42 | 0 | 3.0 | 10.0 | 0.00 | 0.00 | 0.00 | 89 | 1015.4 |
| 20260505123241 | 43 | 0 | 1.0 | 10.0 | 0.00 | 0.00 | 0.00 | 89 | 1015.4 |
| 20260505122958 | 43 | 0 | 1.0 | 3.0 | 0.00 | 0.00 | 0.00 | 89 | 1015.3 |
| 20260505122843 | 43 | 0 | 1.0 | 3.0 | 0.00 | 0.00 | 0.00 | 89 | 1015.3 |
| 20260505122523 | 43 | 0 | 0.0 | 1.0 | 0.00 | 0.00 | 0.00 | 88 | 1015.3 |
| 20260505122358 | 43 | 0 | 0.0 | 1.0 | 0.00 | 0.00 | 0.00 | 88 | 1015.3 |
| 20260505121732 | 43 | 0 | 0.0 | 2.0 | 0.00 | 0.00 | 0.00 | 88 | 1015.2 |
| 20260505121230 | 43 | 0 | 0.0 | 3.0 | 0.00 | 0.00 | 0.00 | 88 | 1015.0 |
| 20260505120727 | 43 | 0 | 0.0 | 3.0 | 0.00 | 0.00 | 0.00 | 88 | 1015.0 |
| 20260505120227 | 43 | 0 | 0.0 | 3.0 | 0.00 | 0.00 | 0.00 | 88 | 1014.8 |
| 20260505115656 | 43 | 0 | 1.0 | 4.0 | 0.00 | 0.00 | 0.00 | 87 | 1014.7 |
| 20260505115131 | 43 | 0 | 1.0 | 4.0 | 0.00 | 0.00 | 0.00 | 87 | 1014.5 |
| 20260505115122 | 43 | 0 | 2.0 | 5.0 | 0.00 | 0.00 | 0.00 | 87 | 1014.4 |
| 20260505114735 | 43 | 0 | 2.0 | 5.0 | 0.00 | 0.00 | 0.00 | 87 | 1014.4 |
| 20260505114354 | 43 | 0 | 2.0 | 8.0 | 0.00 | 0.00 | 0.00 | 86 | 1014.3 |
| 20260505114227 | 43 | 0 | 2.0 | 8.0 | 0.00 | 0.00 | 0.00 | 86 | 1014.3 |
| 20260505113841 | 43 | 0 | 3.0 | 8.0 | 0.00 | 0.00 | 0.00 | 86 | 1014.2 |
| 20260505113724 | 43 | 0 | 3.0 | 8.0 | 0.00 | 0.00 | 0.00 | 86 | 1014.2 |
| 20260505113053 | 43 | 0 | 4.0 | 8.0 | 0.00 | 0.00 | 0.00 | 86 | 1013.9 |
| 20260505112550 | 43 | 0 | 4.0 | 12.0 | 0.00 | 0.00 | 0.00 | 85 | 1013.9 |
| 20260505112022 | 43 | 0 | 5.0 | 12.0 | 0.00 | 0.00 | 0.00 | 85 | 1013.8 |
| 20260505111518 | 43 | 0 | 5.0 | 11.0 | 0.00 | 0.00 | 0.00 | 86 | 1013.7 |
| 20260505111007 | 43 | 0 | 5.0 | 15.0 | 0.00 | 0.00 | 0.00 | 87 | 1013.5 |
| 20260505110730 | 43 | 0 | 5.0 | 15.0 | 0.00 | 0.00 | 0.00 | 88 | 1013.3 |
| 20260505110615 | 43 | 0 | 5.0 | 15.0 | 0.00 | 0.00 | 0.00 | 88 | 1013.3 |
| 20260505101719 | 43 | 0 | 5.0 | 12.0 | 0.00 | 0.00 | 0.00 | 89 | 1013.1 |
| 20260505101415 | 43 | 0 | 5.0 | 13.0 | 0.00 | 0.00 | 0.00 | 88 | 1013.1 |
| 20260505101257 | 43 | 0 | 5.0 | 13.0 | 0.00 | 0.00 | 0.00 | 88 | 1013.1 |
| 20260505100650 | 43 | 0 | 5.0 | 13.0 | 0.00 | 0.00 | 0.00 | 88 | 1013.1 |
| 20260505100346 | 43 | 0 | 5.0 | 13.0 | 0.00 | 0.00 | 0.00 | 88 | 1013.1 |
| 20260505100230 | 43 | 0 | 5.0 | 13.0 | 0.00 | 0.00 | 0.00 | 88 | 1013.1 |
| 20260505095621 | 43 | 0 | 5.0 | 11.0 | 0.00 | 0.00 | 0.00 | 88 | 1013.3 |
| 20260505095123 | 43 | 0 | 5.0 | 13.0 | 0.00 | 0.00 | 0.00 | 87 | 1013.3 |
| 20260505094618 | 43 | 0 | 5.0 | 13.0 | 0.00 | 0.00 | 0.00 | 87 | 1013.2 |
| 20260505094115 | 43 | 0 | 6.0 | 13.0 | 0.00 | 0.00 | 0.00 | 86 | 1013.3 |
| 20260505093612 | 43 | 0 | 7.0 | 13.0 | 0.00 | 0.00 | 0.00 | 86 | 1013.2 |
| 20260505093049 | 43 | 0 | 7.0 | 13.0 | 0.00 | 0.00 | 0.00 | 85 | 1013.2 |
| 20260505092548 | 43 | 0 | 7.0 | 13.0 | 0.00 | 0.00 | 0.00 | 85 | 1013.2 |
| 20260505092022 | 43 | 0 | 6.0 | 14.0 | 0.00 | 0.00 | 0.00 | 84 | 1013.4 |
| 20260505091521 | 44 | 0 | 6.0 | 14.0 | 0.00 | 0.00 | 0.00 | 84 | 1013.2 |
| 20260505091018 | 44 | 0 | 7.0 | 14.0 | 0.00 | 0.00 | 0.00 | 84 | 1013.2 |
| 20260505090451 | 44 | 0 | 7.0 | 13.0 | 0.00 | 0.00 | 0.00 | 83 | 1013.3 |
| 20260505085927 | 44 | 0 | 6.0 | 12.0 | 0.00 | 0.00 | 0.00 | 83 | 1013.4 |
| 20260505085423 | 44 | 0 | 6.0 | 11.0 | 0.00 | 0.00 | 0.00 | 82 | 1013.4 |
| 20260505085139 | 44 | 0 | 6.0 | 12.0 | 0.00 | 0.00 | 0.00 | 82 | 1013.3 |
| 20260505085025 | 44 | 0 | 6.0 | 12.0 | 0.00 | 0.00 | 0.00 | 82 | 1013.3 |
| 20260505084416 | 44 | 0 | 6.0 | 15.0 | 0.00 | 0.00 | 0.00 | 82 | 1013.4 |
| 20260505083852 | 44 | 0 | 5.0 | 11.0 | 0.00 | 0.00 | 0.00 | 81 | 1013.5 |
| 20260505083606 | 45 | 0 | 5.0 | 13.0 | 0.00 | 0.00 | 0.00 | 81 | 1013.5 |
| 20260505083441 | 45 | 0 | 5.0 | 13.0 | 0.00 | 0.00 | 0.00 | 81 | 1013.5 |
| 20260505083259 | 45 | 0 | 5.0 | 13.0 | 0.00 | 0.00 | 0.00 | 82 | 1013.5 |
| 20260505082912 | 45 | 0 | 5.0 | 13.0 | 0.00 | 0.00 | 0.00 | 82 | 1013.5 |
| 20260505082250 | 45 | 0 | 5.0 | 13.0 | 0.00 | 0.00 | 0.00 | 83 | 1013.5 |
| 20260505081724 | 45 | 0 | 5.0 | 12.0 | 0.00 | 0.00 | 0.00 | 84 | 1013.4 |
| 20260505081224 | 45 | 0 | 6.0 | 13.0 | 0.00 | 0.00 | 0.00 | 85 | 1013.2 |
| 20260505080723 | 45 | 0 | 6.0 | 14.0 | 0.00 | 0.00 | 0.00 | 85 | 1013.1 |
| 20260505080222 | 45 | 0 | 7.0 | 14.0 | 0.00 | 0.00 | 0.00 | 85 | 1013.0 |
| 20260505075705 | 45 | 0 | 7.0 | 18.0 | 0.00 | 0.00 | 0.00 | 85 | 1012.7 |
| 20260505075214 | 45 | 0 | 7.0 | 18.0 | 0.00 | 0.00 | 0.00 | 85 | 1012.6 |
| 20260505074704 | 45 | 0 | 8.0 | 16.0 | 0.00 | 0.00 | 0.00 | 84 | 1012.6 |
| 20260505074204 | 46 | 0 | 8.0 | 16.0 | 0.00 | 0.00 | 0.00 | 84 | 1012.6 |
| 20260505073642 | 46 | 0 | 8.0 | 19.0 | 0.00 | 0.00 | 0.00 | 83 | 1012.5 |
| 20260505073143 | 46 | 0 | 8.0 | 19.0 | 0.00 | 0.00 | 0.00 | 81 | 1012.6 |
| 20260505072637 | 46 | 0 | 8.0 | 16.0 | 0.00 | 0.00 | 0.00 | 80 | 1012.6 |
| 20260505072133 | 46 | 0 | 9.0 | 16.0 | 0.00 | 0.00 | 0.00 | 79 | 1012.7 |
| 20260505071633 | 47 | 0 | 11.0 | 22.0 | 0.00 | 0.00 | 0.00 | 78 | 1012.7 |
| 20260505071116 | 47 | 0 | 12.0 | 29.0 | 0.00 | 0.00 | 0.00 | 76 | 1012.7 |
| 20260505070620 | 47 | 0 | 12.0 | 29.0 | 0.00 | 0.00 | 0.00 | 74 | 1012.8 |
| 20260505065556 | 48 | 0 | 10.0 | 19.0 | 0.00 | 0.00 | 0.00 | 76 | 1012.6 |
| 20260505065057 | 48 | 0 | 9.0 | 16.0 | 0.00 | 0.00 | 0.00 | 76 | 1012.6 |
| 20260505064745 | 49 | 0 | 9.0 | 17.0 | 0.00 | 0.00 | 0.00 | 75 | 1012.7 |
| 20260505064628 | 49 | 0 | 9.0 | 17.0 | 0.00 | 0.00 | 0.00 | 75 | 1012.7 |
| 20260505064014 | 49 | 0 | 9.0 | 17.0 | 0.00 | 0.00 | 0.00 | 72 | 1012.5 |
| 20260505063720 | 50 | 0 | 9.0 | 19.0 | 0.00 | 0.00 | 0.00 | 70 | 1012.5 |
| 20260505063600 | 50 | 0 | 9.0 | 19.0 | 0.00 | 0.00 | 0.00 | 70 | 1012.5 |
| 20260505062955 | 50 | 0 | 8.0 | 19.0 | 0.00 | 0.00 | 0.00 | 68 | 1012.6 |
| 20260505062725 | 51 | 0 | 7.0 | 16.0 | 0.00 | 0.00 | 0.00 | 66 | 1012.6 |
| 20260505062602 | 51 | 0 | 7.0 | 16.0 | 0.00 | 0.00 | 0.00 | 66 | 1012.6 |
| 20260505061954 | 51 | 0 | 8.0 | 16.0 | 0.00 | 0.00 | 0.00 | 64 | 1012.5 |
| 20260505061427 | 52 | 0 | 8.0 | 18.0 | 0.00 | 0.00 | 0.00 | 61 | 1012.5 |
| 20260505060904 | 52 | 0 | 8.0 | 18.0 | 0.00 | 0.00 | 0.00 | 59 | 1012.2 |
| 20260505060351 | 52 | 0 | 8.0 | 21.0 | 0.00 | 0.00 | 0.00 | 58 | 1011.7 |
| 20260505060035 | 53 | 0 | 9.0 | 21.0 | 0.00 | 0.00 | 0.00 | 57 | 1011.4 |
| 20260505055921 | 53 | 0 | 9.0 | 21.0 | 0.00 | 0.00 | 0.00 | 57 | 1011.4 |
| 20260505055255 | 53 | 0 | 9.0 | 19.0 | 0.00 | 0.00 | 0.00 | 56 | 1011.3 |
| 20260505054753 | 53 | 0 | 11.0 | 23.0 | 0.00 | 0.00 | 0.00 | 55 | 1011.0 |
| 20260505054241 | 53 | 0 | 11.0 | 24.0 | 0.00 | 0.00 | 0.00 | 55 | 1010.8 |
| 20260505053742 | 53 | 0 | 12.0 | 26.0 | 0.00 | 0.00 | 0.00 | 54 | 1010.4 |
| 20260505053458 | 54 | 0 | 12.0 | 24.0 | 0.00 | 0.00 | 0.00 | 54 | 1010.5 |
| 20260505053341 | 54 | 0 | 12.0 | 24.0 | 0.00 | 0.00 | 0.00 | 54 | 1010.5 |
| 20260505052729 | 54 | 0 | 11.0 | 24.0 | 0.00 | 0.00 | 0.00 | 54 | 1010.5 |
| 20260505052228 | 54 | 0 | 10.0 | 24.0 | 0.00 | 0.00 | 0.00 | 53 | 1010.5 |
| 20260505051742 | 54 | 0 | 10.0 | 21.0 | 0.00 | 0.00 | 0.00 | 53 | 1010.8 |
| 20260505051225 | 55 | 0 | 9.0 | 20.0 | 0.00 | 0.00 | 0.00 | 52 | 1010.6 |
| 20260505050658 | 55 | 0 | 9.0 | 20.0 | 0.00 | 0.00 | 0.00 | 52 | 1010.9 |
| 20260505050156 | 55 | 0 | 9.0 | 19.0 | 0.00 | 0.00 | 0.00 | 51 | 1010.8 |
| 20260505041418 | 58 | 0 | 12.0 | 23.0 | 0.00 | 0.00 | 0.00 | 46 | 1010.1 |
| 20260505040916 | 58 | 0 | 10.0 | 23.0 | 0.00 | 0.00 | 0.00 | 45 | 1010.1 |
| 20260505040417 | 58 | 0 | 7.0 | 18.0 | 0.00 | 0.00 | 0.00 | 44 | 1010.0 |
| 20260505035850 | 59 | 0 | 7.0 | 17.0 | 0.00 | 0.00 | 0.00 | 44 | 1010.0 |
| 20260505035348 | 59 | 0 | 8.0 | 17.0 | 0.00 | 0.00 | 0.00 | 43 | 1010.0 |
| 20260505034846 | 59 | 0 | 9.0 | 20.0 | 0.00 | 0.00 | 0.00 | 43 | 1009.9 |
| 20260505034319 | 60 | 0 | 11.0 | 20.0 | 0.00 | 0.00 | 0.00 | 43 | 1009.7 |
| 20260505033813 | 60 | 0 | 10.0 | 21.0 | 0.00 | 0.00 | 0.00 | 42 | 1009.5 |
| 20260505033530 | 60 | 0 | 10.0 | 24.0 | 0.00 | 0.00 | 0.00 | 42 | 1009.7 |
| 20260505033413 | 60 | 0 | 10.0 | 24.0 | 0.00 | 0.00 | 0.00 | 42 | 1009.7 |
| 20260505032809 | 60 | 0 | 11.0 | 24.0 | 0.00 | 0.00 | 0.00 | 41 | 1009.8 |
| 20260505032312 | 60 | 0 | 10.0 | 33.0 | 0.00 | 0.00 | 0.00 | 41 | 1009.7 |
| 20260505031744 | 61 | 0 | 10.0 | 33.0 | 0.00 | 0.00 | 0.00 | 41 | 1009.5 |
| 20260505031240 | 61 | 0 | 11.0 | 25.0 | 0.00 | 0.00 | 0.00 | 41 | 1009.5 |
| 20260505030720 | 61 | 0 | 12.0 | 25.0 | 0.00 | 0.00 | 0.00 | 40 | 1009.5 |
| 20260505030211 | 61 | 0 | 12.0 | 22.0 | 0.00 | 0.00 | 0.00 | 40 | 1009.3 |
| 20260505025651 | 61 | 0 | 11.0 | 24.0 | 0.00 | 0.00 | 0.00 | 39 | 1009.2 |
| 20260505025157 | 62 | 0 | 9.0 | 24.0 | 0.00 | 0.00 | 0.00 | 39 | 1009.1 |
| 20260505024642 | 62 | 0 | 9.0 | 22.0 | 0.00 | 0.00 | 0.00 | 39 | 1008.9 |
| 20260505024138 | 62 | 0 | 11.0 | 22.0 | 0.00 | 0.00 | 0.00 | 38 | 1008.8 |
| 20260505023635 | 62 | 0 | 11.0 | 21.0 | 0.00 | 0.00 | 0.00 | 38 | 1008.7 |
| 20260505023131 | 63 | 0 | 10.0 | 21.0 | 0.00 | 0.00 | 0.00 | 38 | 1008.6 |
| 20260505022626 | 63 | 0 | 11.0 | 25.0 | 0.00 | 0.00 | 0.00 | 37 | 1008.5 |
| 20260505022107 | 63 | 0 | 11.0 | 25.0 | 0.00 | 0.00 | 0.00 | 37 | 1008.2 |
| 20260505021556 | 63 | 0 | 11.0 | 22.0 | 0.00 | 0.00 | 0.00 | 37 | 1008.2 |
| 20260505021031 | 64 | 0 | 11.0 | 22.0 | 0.00 | 0.00 | 0.00 | 37 | 1008.1 |
| 20260505020528 | 64 | 0 | 11.0 | 21.0 | 0.00 | 0.00 | 0.00 | 38 | 1007.7 |
| 20260505020000 | 64 | 0 | 12.0 | 24.0 | 0.00 | 0.00 | 0.00 | 37 | 1007.8 |
| 20260505015741 | 65 | 0 | 11.0 | 24.0 | 0.00 | 0.00 | 0.00 | 37 | 1007.6 |
| 20260505015138 | 65 | 0 | 12.0 | 25.0 | 0.00 | 0.00 | 0.00 | 37 | 1007.5 |
| 20260505015018 | 65 | 0 | 12.0 | 25.0 | 0.00 | 0.00 | 0.00 | 37 | 1007.5 |
| 20260505014403 | 65 | 0 | 12.0 | 25.0 | 0.00 | 0.00 | 0.00 | 37 | 1007.4 |
| 20260505013333 | 66 | 0 | 11.0 | 26.0 | 0.00 | 0.00 | 0.00 | 37 | 1007.2 |
| 20260505012830 | 67 | 0 | 12.0 | 26.0 | 0.00 | 0.00 | 0.00 | 37 | 1006.9 |
| 20260505012327 | 67 | 0 | 13.0 | 27.0 | 0.00 | 0.00 | 0.00 | 36 | 1006.9 |
| 20260505011824 | 67 | 0 | 14.0 | 27.0 | 0.00 | 0.00 | 0.00 | 36 | 1006.8 |
| 20260505011315 | 68 | 0 | 12.0 | 26.0 | 0.00 | 0.00 | 0.00 | 36 | 1006.5 |
| 20260505010814 | 68 | 0 | 11.0 | 26.0 | 0.00 | 0.00 | 0.00 | 37 | 1006.6 |
| 20260505010546 | 68 | 0 | 11.0 | 26.0 | 0.00 | 0.00 | 0.00 | 37 | 1006.5 |
| 20260505010415 | 68 | 0 | 11.0 | 26.0 | 0.00 | 0.00 | 0.00 | 37 | 1006.5 |
| 20260505005808 | 69 | 0 | 12.0 | 26.0 | 0.00 | 0.00 | 0.00 | 36 | 1006.6 |
| 20260505005304 | 69 | 0 | 12.0 | 26.0 | 0.00 | 0.00 | 0.00 | 36 | 1006.4 |
| 20260505004740 | 69 | 0 | 13.0 | 26.0 | 0.00 | 0.00 | 0.00 | 35 | 1006.4 |
| 20260505004235 | 70 | 0 | 11.0 | 24.0 | 0.00 | 0.00 | 0.00 | 35 | 1006.5 |
| 20260505003731 | 70 | 0 | 10.0 | 22.0 | 0.00 | 0.00 | 0.00 | 34 | 1006.4 |
| 20260505003227 | 71 | 0 | 10.0 | 20.0 | 0.00 | 0.00 | 0.00 | 34 | 1006.4 |
| 20260505002658 | 71 | 0 | 10.0 | 24.0 | 0.00 | 0.00 | 0.00 | 33 | 1006.7 |
| 20260505002128 | 72 | 0 | 8.0 | 24.0 | 0.00 | 0.00 | 0.00 | 32 | 1006.6 |